This is the latest recevied weather packets stored in our database for station/object K8RRT. If no packets are shown the sender has not sent any weather packets the latest 10 day(s).
| Time | Temp. | Humidity | Pressure | Rain* | Wind** | Luminosity | Snow |
|---|---|---|---|---|---|---|---|
| 1788455918 | 34.44° C | 62% | 1012.9 hPa | 0 mm | - | 684 W/m² | - |
| 1788455613 | 34.44° C | 61% | 1013.2 hPa | 0 mm | - | 708 W/m² | - |
| 1788455312 | 33.89° C | 61% | 1013.2 hPa | 0 mm | - | 718 W/m² | - |
| 1788455008 | 33.89° C | 64% | 1013.3 hPa | 0 mm | - | 701 W/m² | - |
| 1788454706 | 33.89° C | 64% | 1013.3 hPa | 0 mm | - | 690 W/m² | - |
| 1788454405 | 33.89° C | 63% | 1013.3 hPa | 0 mm | - | 717 W/m² | - |
| 1788454100 | 33.89° C | 63% | 1013.6 hPa | 0 mm | - | 720 W/m² | - |
| 1788453796 | 33.89° C | 64% | 1013.4 hPa | 0 mm | - | 700 W/m² | - |
| 1788453495 | 33.33° C | 64% | 1013.7 hPa | 0 mm | - | 654 W/m² | - |
| 1788453192 | 32.78° C | 65% | 1013.7 hPa | 0 mm | - | 679 W/m² | - |
| 1788452887 | 32.78° C | 65% | 1013.8 hPa | 0 mm | - | 721 W/m² | - |
| 1788452583 | 32.78° C | 63% | 1013.6 hPa | 0 mm | - | 733 W/m² | - |
| 1788452279 | 32.78° C | 65% | 1013.7 hPa | 0 mm | - | 685 W/m² | - |
| 1788451974 | 32.78° C | 67% | 1013.8 hPa | 0 mm | - | 645 W/m² | - |
| 1788451670 | 32.78° C | 69% | 1013.7 hPa | 0 mm | - | 666 W/m² | - |
| 1788451369 | 33.33° C | 66% | 1013.9 hPa | 0 mm | - | 716 W/m² | - |
| 1788451067 | 32.78° C | 70% | 1013.6 hPa | 0 mm | - | 642 W/m² | - |
| 1788450763 | 32.78° C | 68% | 1013.7 hPa | 0 mm | - | 642 W/m² | - |
| 1788450458 | 33.33° C | 68% | 1013.7 hPa | 0 mm | - | 792 W/m² | - |
| 1788450154 | 32.78° C | 70% | 1013.8 hPa | 0 mm | - | 809 W/m² | - |
| 1788449849 | 31.67° C | 72% | 1013.9 hPa | 0 mm | - | 819 W/m² | - |
| 1788449545 | 31.67° C | 73% | 1013.8 hPa | 0 mm | - | 779 W/m² | - |
| 1788449241 | 31.67° C | 73% | 1014 hPa | 0 mm | - | 758 W/m² | - |
| 1788448937 | 31.67° C | 74% | 1013.8 hPa | 0 mm | - | 764 W/m² | - |
| 1788448637 | 31.67° C | 73% | 1014 hPa | 0 mm | - | 744 W/m² | - |
* Rain latest hour (hover to see other rain measurements)
** Current wind speed in m/s (hover to see current wind gust speed)